Regional Weather Roundup
Issued by NWS

Home | Current Version | Previous Version | Text Only | Print | Product List | Glossary On
Versions: 1 2 3 4 5 6 7 8 9 10 11 12 13 14 15 16 17 18 19 20 21 22 23 24 25 26 27 28 29 30 31 32 33 34 35 36 37 38 39 40 41 42 43 44 45 46 47 48 49 50
000
ASUS45 KPSR 022310
RWRAZ

ARIZONA HOURLY REGIONAL WEATHER ROUNDUP
NATIONAL WEATHER SERVICE PHOENIX AZ
400 PM MST WED SEP 02 2015

NOTE: FAIR INDICATES FEW OR NO CLOUDS BELOW 12,000 FEET WITH NO
SIGNIFICANT WEATHER AND/OR OBSTRUCTIONS TO VISIBILITY.

AZZ001>003-036-030000-
NORTHWEST ARIZONA

CITY           SKY/WX    TMP DP  RH WIND       PRES   REMARKS
BULLHEAD CITY  FAIR     100  37  11 S21G26    29.76F
KINGMAN        FAIR      92  40  16 SW23      29.96F
$$

AZZ004>008-015-016-018-030000-
NORTH CENTRAL ARIZONA

CITY           SKY/WX    TMP DP  RH WIND       PRES   REMARKS
GRAND CANYON   FAIR      79  41  25 SW14G26   30.21F
WILLIAMS       FAIR      77  46  33 SW14G22   30.27S
PRESCOTT       FAIR      84  39  20 SW12G20   30.11F
FLAGSTAFF      FAIR      73  49  42 SW13G23   30.26F
PAYSON         FAIR      84  46  26 W9        30.14S
PAGE           FAIR      90  44  20 MISG      29.98F
$$

AZZ009>014-017-030000-
NORTHEAST ARIZONA

CITY           SKY/WX    TMP DP  RH WIND       PRES   REMARKS
WINSLOW        LGT RAIN  66  55  67 W16       30.13F
SAINT JOHNS    LGT RAIN  66  54  65 S7        30.21R
WINDOW ROCK    CLOUDY    70  47  43 NE9G23    30.22F
SHOW LOW       FAIR      73  46  38 S7        30.23S
$$

AZZ023-030000-
GREATER PHOENIX AREA

CITY           SKY/WX    TMP DP  RH WIND       PRES   REMARKS
PHOENIX        PTSUNNY  100  49  17 E9        29.81F
BUCKEYE        FAIR      99  46  16 SW6       29.81F
GLENDALE       PTSUNNY  N/A N/A N/A SE5       29.83F
LUKE AFB       FAIR     100  48  17 NW6       29.80F
DEER VALLEY    FAIR      97  48  18 SE8       29.84F
SCOTTSDALE     FAIR      95  48  20 CALM      29.87F
MESA-FALCON    PTSUNNY   97  46  17 W7        29.84F
MESA-GATEWAY   MOSUNNY   99  50  19 W5        29.86F
CHANDLER       PTSUNNY   99  54  22 W7        29.83F
$$

AZZ027-028-030000-
SOUTHWEST MARICOPA COUNTY AND PINAL COUNTY

CITY           SKY/WX    TMP DP  RH WIND       PRES   REMARKS
CASA GRANDE    FAIR      99  54  22 CALM      29.83F
GILA BEND      PTSUNNY  101  52  19 SW16      29.78F
$$

AZZ503-504-507>509-030000-
SOUTHEAST ARIZONA

CITY           SKY/WX    TMP DP  RH WIND       PRES   REMARKS
TUCSON         FAIR      90  58  33 SE13      29.96F
DAVIS-MONTHAN  FAIR      88  60  38 SE14      29.95F
RYAN FIELD     MOSUNNY   93  57  29 SE16      29.93F
NOGALES        FAIR      89  58  34 NE8       30.04F
SIERRA VISTA   PTSUNNY   70  59  68 NE5       30.13R
DOUGLAS        FAIR      82  55  39 N21G28    30.06R
SAFFORD        PTSUNNY   85  62  46 W6        30.00R
$$

AZZ020-021-025-026-031-030000-
SOUTHWEST ARIZONA

CITY           SKY/WX    TMP DP  RH WIND       PRES   REMARKS
YUMA           PTSUNNY  103  48  15 S13G20    29.74F
$$

CAZ031-033-041-043-047-048-061-030000-
SOUTHERN CALIFORNIA

CITY           SKY/WX    TMP DP  RH WIND       PRES   REMARKS
DOWNTOWN L.A.  FAIR      77  59  53 VRB3      29.90F
L.A. AIRPORT   FAIR      72  60  66 W13       29.91F
SAN DIEGO      FAIR      73  57  57 W7        29.93F
BURBANK        FAIR      79  58  48 S5        29.90F
ONTARIO        FAIR      86  55  34 W12       29.89F
RIVERSIDE      FAIR      86  57  37 W12G22    29.88F
PALM SPRINGS   FAIR     101  44  14 NW12      29.77F
EL CENTRO NAS  PTSUNNY  103  41  12 S5        29.73F
IMPERIAL       FAIR     102  53  19 E5        29.71F HX 100
BLYTHE         FAIR     101  49  17 S14       29.75F
NEEDLES        FAIR     102  38  11 S16G23    29.78F
$$

NVZ020-UTZ003-030000-
SOUTHERN NEVADA-UTAH

CITY           SKY/WX    TMP DP  RH WIND       PRES   REMARKS
LAS VEGAS      FAIR     100  39  12 SW10G22   29.77F
SALT LAKE CITY PTSUNNY   90  39  16 S18G24    29.87F
$$

NMZ009-TXZ055-030000-
NEW MEXICO-WEST TEXAS

CITY           SKY/WX    TMP DP  RH WIND       PRES   REMARKS
ALBUQUERQUE    PTSUNNY   87  45  23 W10       30.10S
EL PASO        PTSUNNY   97  41  14 SE6       29.96F
$$


........................KEY........................
SKY/WX - SKY CONDITION/WEATHER
TMP    - TEMPERATURE IN FAHRENHEIT
DP     - DEW POINT IN FAHRENHEIT
RH     - RELATIVE HUMIDITY IN PERCENT
WIND   - DIRECTION AND SPEED IN MILES PER HOUR (MPH)
VRB    - VARIABLE WIND DIRECTION
PRES   - MEAN SEA LEVEL PRESSURE IN INCHES OF MERCURY
         F - FALLING PRESSURE   R - RISING PRESSURE
         S - STEADY PRESSURE
VSB    - VISIBILITY IN MILES
HX     - HEAT INDEX IN FAHRENHEIT
WCI    - WIND CHILL INDEX IN FAHRENHEIT
TC     - TEMPERATURE IN CELSIUS WHICH IS ALSO KNOWN AS
         TEMPERATURE IN CENTIGRADE
AFB    - AIR FORCE BASE
         LUKE AFB IS LUKE AIR FORCE BASE
         DAVIS-MONTHAN IS DAVIS-MONTHAN AIR FORCE BASE
NAS    - NAVAL AIR STATION
         EL CENTRO NAS IS EL CENTRO NAVAL AIR STATION
N/A    - NOT AVAILABLE



USA.gov is the U.S. government's official web portal to all federal, state and local government web resources and services.